Location: Azul
(36.7830°S, 59.8500°W)
Time: 14:52:33
(UTC-03:00)

ISS - Visible Passes

Search period start: 23 January 2020 00:00
Search period end: 02 February 2020 00:00
Orbit: 415 x 422 km, 51.6° (Epoch: 23 January)

Date Brightness Start Highest point End Pass type
(mag) Time Alt. Az. Time Alt. Az. Time Alt. Az.
25 Jan -2.2 05:02:13 12° N 05:04:49 29° NE 05:07:51 10° ESE visible
26 Jan -1.5 04:16:39 16° NE 04:17:17 17° NE 04:19:31 10° E visible
27 Jan -3.8 05:03:56 21° NW 05:06:03 79° SW 05:09:29 10° SE visible
28 Jan -3.5 04:18:12 54° NNE 04:18:22 55° NE 04:21:43 10° ESE visible
29 Jan -1.3 03:32:24 19° E 03:32:24 19° E 03:33:44 10° ESE visible
29 Jan -2.2 05:05:21 15° W 05:07:30 28° SSW 05:10:30 10° SSE visible
30 Jan -3.1 04:19:28 44° SW 04:19:39 44° SW 04:22:57 10° SE visible
31 Jan -1.6 03:33:33 28° SE 03:33:33 28° SE 03:35:18 10° SE visible
31 Jan -1.2 05:07:15 10° WSW 05:09:08 14° SSW 05:11:02 10° S visible
01 Feb -1.7 04:20:31 18° SW 04:21:09 19° SSW 04:23:43 10° SSE visible
